Location: Eisingen in Unterfranken
(49.7591°N, 9.8347°E)
Time: 09:17:40
(UTC+01:00)

Envisat - Pass Details

Date: 27 November 2022
Orbit: 763 x 765 km, 98.2° (Epoch: 04 February)

Event Time Altitude Azimuth Distance (km) Brightness Sun altitude
Rises 04:03:26 0° 19° (NNE) 3,246 6.6 -35.9°
Reaches altitude 10° 04:05:54 10° 28° (NNE) 2,315 5.8 -35.5°
Enters shadow 04:09:04 31° 57° (ENE) 1,325 4.6 -35.0°
